Time,TemperatureF,DewpointF,PressureIn,WindDirection,WindDirectionDegrees,WindSpeedMPH,WindSpeedGustMPH,Humidity,HourlyPrecipIn,Conditions,Clouds,dailyrainin,SoftwareType,DateUTC
2013-06-09 00:02:00,53.0,48.0,29.89,NW,313,10.0,-999.0,83,-99.99,,,-99.99,,2013-06-09 06:02:00,
2013-06-09 00:12:00,53.0,48.0,29.89,NW,311,9.0,-999.0,84,-99.99,,,-99.99,,2013-06-09 06:12:00,
2013-06-09 00:22:00,52.0,48.0,29.89,WNW,303,8.0,-999.0,85,-99.99,,,-99.99,,2013-06-09 06:22:00,
2013-06-09 00:32:00,51.0,48.0,29.89,WNW,303,7.0,-999.0,87,-99.99,,,-99.99,,2013-06-09 06:32:00,
2013-06-09 00:42:00,51.0,47.0,29.90,NW,306,9.0,-999.0,88,-99.99,,,-99.99,,2013-06-09 06:42:00,
2013-06-09 00:52:00,50.0,47.0,29.87,WNW,286,6.0,-999.0,88,-99.99,,,-99.99,,2013-06-09 06:52:00,
2013-06-09 01:02:00,49.0,47.0,29.89,WSW,248,7.0,-999.0,92,-99.99,,,-99.99,,2013-06-09 07:02:00,
2013-06-09 01:12:00,50.0,46.0,29.89,West,272,7.0,-999.0,87,-99.99,,,-99.99,,2013-06-09 07:12:00,
2013-06-09 01:22:00,50.0,46.0,29.90,West,272,8.0,-999.0,87,-99.99,,,-99.99,,2013-06-09 07:22:00,
2013-06-09 01:32:00,49.0,46.0,29.89,WNW,287,8.0,-999.0,87,-99.99,,,-99.99,,2013-06-09 07:32:00,
2013-06-09 01:42:00,49.0,46.0,29.90,WNW,293,7.0,-999.0,88,-99.99,,,-99.99,,2013-06-09 07:42:00,
2013-06-09 01:52:00,50.0,46.0,29.87,WNW,284,7.0,-999.0,87,-99.99,,,-99.99,,2013-06-09 07:52:00,
2013-06-09 02:02:00,50.0,46.0,29.89,WNW,284,8.0,-999.0,86,-99.99,,,-99.99,,2013-06-09 08:02:00,
2013-06-09 02:12:00,49.0,46.0,29.90,West,268,7.0,-999.0,89,-99.99,,,-99.99,,2013-06-09 08:12:00,
2013-06-09 02:22:00,49.0,45.0,29.89,West,270,11.0,-999.0,88,-99.99,,,-99.99,,2013-06-09 08:22:00,
2013-06-09 02:32:00,49.0,45.0,29.91,West,259,10.0,-999.0,88,-99.99,,,-99.99,,2013-06-09 08:32:00,
2013-06-09 02:42:00,49.0,45.0,29.90,West,263,10.0,-999.0,87,-99.99,,,-99.99,,2013-06-09 08:42:00,
2013-06-09 02:53:00,49.0,45.0,29.89,West,270,11.0,-999.0,86,-99.99,,,-99.99,,2013-06-09 08:53:00,
2013-06-09 03:02:00,49.0,45.0,29.91,West,280,10.0,-999.0,86,-99.99,,,-99.99,,2013-06-09 09:02:00,
2013-06-09 03:12:00,49.0,45.0,29.89,WNW,283,10.0,-999.0,86,-99.99,,,-99.99,,2013-06-09 09:12:00,
2013-06-09 03:22:00,48.0,45.0,29.90,West,280,11.0,-999.0,88,-99.99,,,-99.99,,2013-06-09 09:22:00,
2013-06-09 03:33:00,48.0,45.0,29.91,West,272,9.0,-999.0,87,-99.99,,,-99.99,,2013-06-09 09:33:00,
2013-06-09 03:43:00,48.0,44.0,29.89,West,279,11.0,-999.0,88,-99.99,,,-99.99,,2013-06-09 09:43:00,
2013-06-09 03:52:00,47.0,45.0,29.90,West,281,9.0,-999.0,90,-99.99,,,-99.99,,2013-06-09 09:52:00,
2013-06-09 04:03:00,47.0,44.0,29.89,West,277,11.0,-999.0,90,-99.99,,,-99.99,,2013-06-09 10:03:00,
2013-06-09 04:12:00,47.0,45.0,29.91,West,281,10.0,-999.0,91,-99.99,,,-99.99,,2013-06-09 10:12:00,
2013-06-09 04:23:00,47.0,44.0,29.90,WNW,289,12.0,-999.0,91,-99.99,,,-99.99,,2013-06-09 10:23:00,
2013-06-09 04:32:00,48.0,45.0,29.88,West,275,11.0,-999.0,88,-99.99,,,-99.99,,2013-06-09 10:32:00,
2013-06-09 04:43:00,47.0,45.0,29.90,West,277,11.0,-999.0,91,-99.99,,,-99.99,,2013-06-09 10:43:00,
2013-06-09 04:52:00,47.0,45.0,29.91,West,277,9.0,-999.0,91,-99.99,,,-99.99,,2013-06-09 10:52:00,
2013-06-09 05:02:00,47.0,45.0,29.92,WNW,282,13.0,-999.0,90,-99.99,,,-99.99,,2013-06-09 11:02:00,
2013-06-09 05:12:00,47.0,45.0,29.92,WNW,287,13.0,-999.0,90,-99.99,,,-99.99,,2013-06-09 11:12:00,
2013-06-09 05:22:00,47.0,45.0,29.92,WNW,287,11.0,-999.0,90,-99.99,,,-99.99,,2013-06-09 11:22:00,
2013-06-09 05:32:00,47.0,45.0,29.92,WNW,285,11.0,-999.0,90,-99.99,,,-99.99,,2013-06-09 11:32:00,
2013-06-09 05:42:00,49.0,45.0,29.91,WNW,295,10.0,-999.0,87,-99.99,,,-99.99,,2013-06-09 11:42:00,
2013-06-09 05:52:00,49.0,45.0,29.90,WNW,292,11.0,-999.0,86,-99.99,,,-99.99,,2013-06-09 11:52:00,
2013-06-09 06:02:00,49.0,45.0,29.92,WNW,288,13.0,-999.0,86,-99.99,,,-99.99,,2013-06-09 12:02:00,
2013-06-09 06:12:00,50.0,45.0,29.92,WNW,296,13.0,-999.0,85,-99.99,,,-99.99,,2013-06-09 12:12:00,
2013-06-09 06:22:00,50.0,46.0,29.93,NW,305,13.0,-999.0,84,-99.99,,,-99.99,,2013-06-09 12:22:00,
2013-06-09 06:32:00,51.0,46.0,29.93,NW,305,11.0,-999.0,83,-99.99,,,-99.99,,2013-06-09 12:32:00,
2013-06-09 06:42:00,50.0,46.0,29.93,NW,308,9.0,-999.0,84,-99.99,,,-99.99,,2013-06-09 12:42:00,
2013-06-09 06:52:00,51.0,46.0,29.92,WNW,300,12.0,-999.0,84,-99.99,,,-99.99,,2013-06-09 12:52:00,
2013-06-09 07:02:00,52.0,47.0,29.94,WNW,303,12.0,-999.0,84,-99.99,,,-99.99,,2013-06-09 13:02:00,
2013-06-09 07:12:00,53.0,47.0,29.94,NW,310,10.0,-999.0,81,-99.99,,,-99.99,,2013-06-09 13:12:00,
2013-06-09 07:22:00,54.0,48.0,29.93,NW,319,11.0,-999.0,79,-99.99,,,-99.99,,2013-06-09 13:22:00,
2013-06-09 07:32:00,55.0,48.0,29.93,NW,317,7.0,-999.0,76,-99.99,,,-99.99,,2013-06-09 13:32:00,
2013-06-09 07:42:00,56.0,48.0,29.93,NW,320,10.0,-999.0,75,-99.99,,,-99.99,,2013-06-09 13:42:00,
2013-06-09 07:52:00,56.0,48.0,29.93,NW,320,10.0,-999.0,75,-99.99,,,-99.99,,2013-06-09 13:52:00,
2013-06-09 08:02:00,57.0,48.0,29.93,NW,313,11.0,-999.0,73,-99.99,,,-99.99,,2013-06-09 14:02:00,
2013-06-09 08:12:00,58.0,49.0,29.93,WNW,302,10.0,-999.0,72,-99.99,,,-99.99,,2013-06-09 14:12:00,
2013-06-09 08:22:00,59.0,49.0,29.92,NW,313,11.0,-999.0,69,-99.99,,,-99.99,,2013-06-09 14:22:00,
2013-06-09 08:32:00,60.0,50.0,29.95,NW,313,9.0,-999.0,69,-99.99,,,-99.99,,2013-06-09 14:32:00,
2013-06-09 08:42:00,60.0,49.0,29.95,NW,326,8.0,-999.0,66,-99.99,,,-99.99,,2013-06-09 14:42:00,
2013-06-09 08:52:00,60.0,48.0,29.93,WNW,298,13.0,-999.0,64,-99.99,,,-99.99,,2013-06-09 14:52:00,
2013-06-09 09:02:00,61.0,49.0,29.95,WNW,297,10.0,-999.0,66,-99.99,,,-99.99,,2013-06-09 15:02:00,
2013-06-09 09:12:00,62.0,50.0,29.94,NW,311,11.0,-999.0,64,-99.99,,,-99.99,,2013-06-09 15:12:00,
2013-06-09 09:22:00,62.0,49.0,29.94,NW,321,12.0,-999.0,63,-99.99,,,-99.99,,2013-06-09 15:22:00,
2013-06-09 09:33:00,63.0,47.0,29.93,North,-999,13.0,-999.0,55,-99.99,,,-99.99,,2013-06-09 15:33:00,
2013-06-09 09:43:00,64.0,46.0,29.93,South,178,16.0,-999.0,52,-99.99,,,-99.99,,2013-06-09 15:43:00,
2013-06-09 09:53:00,64.0,46.0,29.94,North,-999,12.0,-999.0,53,-99.99,,,-99.99,,2013-06-09 15:53:00,
2013-06-09 10:03:00,65.0,46.0,29.93,North,-999,13.0,-999.0,50,-99.99,,,-99.99,,2013-06-09 16:03:00,
2013-06-09 10:13:00,64.0,44.0,29.93,WSW,258,16.0,-999.0,47,-99.99,,,-99.99,,2013-06-09 16:13:00,
2013-06-09 10:23:00,65.0,43.0,29.92,North,6,15.0,-999.0,45,-99.99,,,-99.99,,2013-06-09 16:23:00,
2013-06-09 10:33:00,65.0,43.0,29.93,NW,305,17.0,-999.0,44,-99.99,,,-99.99,,2013-06-09 16:33:00,
2013-06-09 10:42:00,65.0,43.0,29.95,North,-999,13.0,-999.0,44,-99.99,,,-99.99,,2013-06-09 16:42:00,
2013-06-09 10:53:00,65.0,43.0,29.95,North,-999,13.0,-999.0,44,-99.99,,,-99.99,,2013-06-09 16:53:00,
2013-06-09 11:03:00,67.0,44.0,29.92,NNW,339,13.0,-999.0,44,-99.99,,,-99.99,,2013-06-09 17:03:00,
2013-06-09 11:12:00,67.0,45.0,29.92,NW,317,11.0,-999.0,45,-99.99,,,-99.99,,2013-06-09 17:12:00,
2013-06-09 11:22:00,67.0,43.0,29.93,South,174,13.0,-999.0,42,-99.99,,,-99.99,,2013-06-09 17:22:00,
2013-06-09 11:32:00,67.0,43.0,29.92,NNE,16,14.0,-999.0,41,-99.99,,,-99.99,,2013-06-09 17:32:00,
2013-06-09 11:42:00,68.0,45.0,29.93,WNW,282,14.0,-999.0,44,-99.99,,,-99.99,,2013-06-09 17:42:00,
2013-06-09 11:52:00,68.0,45.0,29.93,WNW,282,14.0,-999.0,44,-99.99,,,-99.99,,2013-06-09 17:52:00,
2013-06-09 12:02:00,68.0,42.0,29.93,NNE,12,10.0,-999.0,39,-99.99,,,-99.99,,2013-06-09 18:02:00,
2013-06-09 12:12:00,68.0,43.0,29.93,NNW,340,14.0,-999.0,41,-99.99,,,-99.99,,2013-06-09 18:12:00,
2013-06-09 12:22:00,68.0,42.0,29.91,North,11,13.0,-999.0,39,-99.99,,,-99.99,,2013-06-09 18:22:00,
2013-06-09 12:32:00,68.0,43.0,29.93,NNW,335,12.0,-999.0,41,-99.99,,,-99.99,,2013-06-09 18:32:00,
2013-06-09 12:42:00,69.0,43.0,29.93,North,-999,15.0,-999.0,39,-99.99,,,-99.99,,2013-06-09 18:42:00,
2013-06-09 12:52:00,69.0,43.0,29.93,North,-999,15.0,-999.0,39,-99.99,,,-99.99,,2013-06-09 18:52:00,
2013-06-09 13:02:00,69.0,45.0,29.93,NNE,16,10.0,-999.0,42,-99.99,,,-99.99,,2013-06-09 19:02:00,
2013-06-09 13:12:00,69.0,47.0,29.92,NW,316,9.0,-999.0,44,-99.99,,,-99.99,,2013-06-09 19:12:00,
2013-06-09 13:22:00,70.0,44.0,29.91,NNE,17,9.0,-999.0,40,-99.99,,,-99.99,,2013-06-09 19:22:00,
2013-06-09 13:32:00,70.0,44.0,29.89,North,2,7.0,-999.0,39,-99.99,,,-99.99,,2013-06-09 19:32:00,
2013-06-09 13:42:00,71.0,44.0,29.91,NNE,24,11.0,-999.0,39,-99.99,,,-99.99,,2013-06-09 19:42:00,
2013-06-09 13:52:00,70.0,44.0,29.90,NNE,18,9.0,-999.0,38,-99.99,,,-99.99,,2013-06-09 19:52:00,
2013-06-09 14:02:00,70.0,43.0,29.89,ENE,75,6.0,-999.0,38,-99.99,,,-99.99,,2013-06-09 20:02:00,
2013-06-09 14:12:00,71.0,46.0,29.89,East,87,10.0,-999.0,41,-99.99,,,-99.99,,2013-06-09 20:12:00,
2013-06-09 14:22:00,70.0,41.0,29.90,ENE,65,5.0,-999.0,35,-99.99,,,-99.99,,2013-06-09 20:22:00,
2013-06-09 14:32:00,71.0,41.0,29.90,East,93,3.0,-999.0,34,-99.99,,,-99.99,,2013-06-09 20:32:00,
2013-06-09 14:42:00,71.0,44.0,29.90,NE,35,5.0,-999.0,38,-99.99,,,-99.99,,2013-06-09 20:42:00,
2013-06-09 14:52:00,71.0,43.0,29.89,East,92,5.0,-999.0,37,-99.99,,,-99.99,,2013-06-09 20:52:00,
2013-06-09 15:02:00,72.0,45.0,29.88,East,89,4.0,-999.0,39,-99.99,,,-99.99,,2013-06-09 21:02:00,
2013-06-09 15:12:00,72.0,44.0,29.90,NE,37,4.0,-999.0,37,-99.99,,,-99.99,,2013-06-09 21:12:00,
2013-06-09 15:22:00,71.0,43.0,29.89,NNE,28,6.0,-999.0,37,-99.99,,,-99.99,,2013-06-09 21:22:00,
2013-06-09 15:33:00,72.0,45.0,29.88,North,0,0.0,-999.0,37,-99.99,,,-99.99,,2013-06-09 21:33:00,
2013-06-09 15:43:00,73.0,44.0,29.88,East,87,5.0,-999.0,35,-99.99,,,-99.99,,2013-06-09 21:43:00,
2013-06-09 15:53:00,72.0,44.0,29.87,North,0,0.0,-999.0,36,-99.99,,,-99.99,,2013-06-09 21:53:00,
2013-06-09 16:02:00,72.0,42.0,29.87,SW,222,3.0,-999.0,34,-99.99,,,-99.99,,2013-06-09 22:02:00,
2013-06-09 16:13:00,73.0,43.0,29.87,North,0,0.0,-999.0,34,-99.99,,,-99.99,,2013-06-09 22:13:00,
2013-06-09 16:23:00,72.0,42.0,29.86,SW,228,2.0,-999.0,33,-99.99,,,-99.99,,2013-06-09 22:23:00,
2013-06-09 16:33:00,74.0,46.0,29.87,SE,139,3.0,-999.0,37,-99.99,,,-99.99,,2013-06-09 22:33:00,
2013-06-09 16:42:00,72.0,43.0,29.88,NE,49,5.0,-999.0,34,-99.99,,,-99.99,,2013-06-09 22:42:00,
2013-06-09 16:52:00,72.0,43.0,29.88,NE,49,5.0,-999.0,34,-99.99,,,-99.99,,2013-06-09 22:52:00,
2013-06-09 17:02:00,73.0,47.0,29.87,SE,136,7.0,-999.0,39,-99.99,,,-99.99,,2013-06-09 23:02:00,
2013-06-09 17:12:00,74.0,46.0,29.85,North,0,0.0,-999.0,37,-99.99,,,-99.99,,2013-06-09 23:12:00,
2013-06-09 17:22:00,73.0,42.0,29.87,NE,49,3.0,-999.0,33,-99.99,,,-99.99,,2013-06-09 23:22:00,
2013-06-09 17:32:00,73.0,43.0,29.87,SE,124,5.0,-999.0,34,-99.99,,,-99.99,,2013-06-09 23:32:00,
2013-06-09 17:42:00,73.0,46.0,29.85,East,99,4.0,-999.0,37,-99.99,,,-99.99,,2013-06-09 23:42:00,
2013-06-09 17:52:00,73.0,47.0,29.86,ESE,123,7.0,-999.0,39,-99.99,,,-99.99,,2013-06-09 23:52:00,
2013-06-09 18:02:00,73.0,44.0,29.84,East,101,8.0,-999.0,35,-99.99,,,-99.99,,2013-06-10 00:02:00,
2013-06-09 18:13:00,72.0,45.0,29.86,ESE,103,7.0,-999.0,37,-99.99,,,-99.99,,2013-06-10 00:13:00,
2013-06-09 18:22:00,73.0,46.0,29.86,ESE,114,5.0,-999.0,39,-99.99,,,-99.99,,2013-06-10 00:22:00,
2013-06-09 18:32:00,72.0,43.0,29.85,ENE,75,7.0,-999.0,35,-99.99,,,-99.99,,2013-06-10 00:32:00,
2013-06-09 18:42:00,72.0,47.0,29.84,SE,128,10.0,-999.0,41,-99.99,,,-99.99,,2013-06-10 00:42:00,
2013-06-09 18:52:00,72.0,47.0,29.84,SE,128,10.0,-999.0,41,-99.99,,,-99.99,,2013-06-10 00:52:00,
2013-06-09 19:02:00,71.0,46.0,29.84,SE,131,12.0,-999.0,41,-99.99,,,-99.99,,2013-06-10 01:02:00,
2013-06-09 19:12:00,71.0,48.0,29.84,ESE,123,12.0,-999.0,44,-99.99,,,-99.99,,2013-06-10 01:12:00,
2013-06-09 19:22:00,70.0,48.0,29.83,ESE,116,11.0,-999.0,45,-99.99,,,-99.99,,2013-06-10 01:22:00,
2013-06-09 19:32:00,70.0,48.0,29.83,ESE,113,8.0,-999.0,47,-99.99,,,-99.99,,2013-06-10 01:32:00,
2013-06-09 19:43:00,69.0,49.0,29.84,ESE,115,10.0,-999.0,48,-99.99,,,-99.99,,2013-06-10 01:43:00,
2013-06-09 19:52:00,68.0,49.0,29.82,ESE,113,11.0,-999.0,50,-99.99,,,-99.99,,2013-06-10 01:52:00,
2013-06-09 20:02:00,67.0,49.0,29.84,ESE,113,12.0,-999.0,52,-99.99,,,-99.99,,2013-06-10 02:02:00,
2013-06-09 20:12:00,67.0,49.0,29.82,ESE,117,11.0,-999.0,53,-99.99,,,-99.99,,2013-06-10 02:12:00,
2013-06-09 20:22:00,66.0,49.0,29.83,ESE,119,11.0,-999.0,55,-99.99,,,-99.99,,2013-06-10 02:22:00,
2013-06-09 20:32:00,64.0,49.0,29.82,ESE,115,12.0,-999.0,57,-99.99,,,-99.99,,2013-06-10 02:32:00,
2013-06-09 20:42:00,64.0,50.0,29.82,ESE,112,11.0,-999.0,60,-99.99,,,-99.99,,2013-06-10 02:42:00,
2013-06-09 20:52:00,64.0,50.0,29.82,ESE,112,11.0,-999.0,60,-99.99,,,-99.99,,2013-06-10 02:52:00,
2013-06-09 21:02:00,63.0,50.0,29.82,ESE,122,14.0,-999.0,62,-99.99,,,-99.99,,2013-06-10 03:02:00,
2013-06-09 21:12:00,63.0,49.0,29.84,SE,126,16.0,-999.0,61,-99.99,,,-99.99,,2013-06-10 03:12:00,
2013-06-09 21:22:00,62.0,50.0,29.82,ESE,123,14.0,-999.0,63,-99.99,,,-99.99,,2013-06-10 03:22:00,
2013-06-09 21:33:00,62.0,50.0,29.83,ESE,112,14.0,-999.0,65,-99.99,,,-99.99,,2013-06-10 03:33:00,
2013-06-09 21:43:00,61.0,50.0,29.84,ESE,123,13.0,-999.0,67,-99.99,,,-99.99,,2013-06-10 03:43:00,
2013-06-09 21:53:00,61.0,50.0,29.83,ESE,119,14.0,-999.0,67,-99.99,,,-99.99,,2013-06-10 03:53:00,
2013-06-09 22:03:00,60.0,49.0,29.83,ESE,121,13.0,-999.0,67,-99.99,,,-99.99,,2013-06-10 04:03:00,
2013-06-09 22:12:00,61.0,49.0,29.83,SE,124,14.0,-999.0,66,-99.99,,,-99.99,,2013-06-10 04:12:00,
2013-06-09 22:23:00,60.0,49.0,29.83,SE,127,14.0,-999.0,66,-99.99,,,-99.99,,2013-06-10 04:23:00,
2013-06-09 22:33:00,60.0,48.0,29.82,SE,132,14.0,-999.0,65,-99.99,,,-99.99,,2013-06-10 04:33:00,
2013-06-09 22:42:00,60.0,49.0,29.83,SE,139,11.0,-999.0,67,-99.99,,,-99.99,,2013-06-10 04:42:00,
2013-06-09 22:52:00,59.0,49.0,29.83,ESE,121,13.0,-999.0,69,-99.99,,,-99.99,,2013-06-10 04:52:00,
2013-06-09 23:02:00,58.0,49.0,29.83,ESE,116,10.0,-999.0,73,-99.99,,,-99.99,,2013-06-10 05:02:00,
2013-06-09 23:12:00,58.0,49.0,29.81,ESE,121,13.0,-999.0,72,-99.99,,,-99.99,,2013-06-10 05:12:00,
2013-06-09 23:22:00,57.0,49.0,29.80,SE,128,17.0,-999.0,73,-99.99,,,-99.99,,2013-06-10 05:22:00,
2013-06-09 23:32:00,58.0,49.0,29.83,ESE,122,15.0,-999.0,72,-99.99,,,-99.99,,2013-06-10 05:32:00,
2013-06-09 23:42:00,59.0,48.0,29.82,ESE,122,21.0,-999.0,68,-99.99,,,-99.99,,2013-06-10 05:42:00,
2013-06-09 23:52:00,59.0,48.0,29.82,ESE,122,21.0,-999.0,68,-99.99,,,-99.99,,2013-06-10 05:52:00,